Pyramid Lake Weather Center

Moon Phase Calendar



Pyramid Lake Water Level
Online Cameras

 


      

Current Conditions in Spanish Springs
7/4/2022 3:13:23 PM

81°F
Feels Like 80
Clouds
Humidity
35%
Pressure
29.8"
Wind
5.6 mph (WSW)
Dew Point
51°F
UV Index
7/10 (High)
Visibility
6 mi

Hourly Forecast

Date & Time Mon, Jul 4
3:00 PM
Mon, Jul 4
4:00 PM
Mon, Jul 4
5:00 PM
Mon, Jul 4
6:00 PM
Mon, Jul 4
7:00 PM
Mon, Jul 4
8:00 PM
Mon, Jul 4
9:00 PM
Mon, Jul 4
10:00 PM
Mon, Jul 4
11:00 PM
Tue, Jul 5
12:00 AM
Tue, Jul 5
1:00 AM
Tue, Jul 5
2:00 AM
Tue, Jul 5
3:00 AM
Tue, Jul 5
4:00 AM
Tue, Jul 5
5:00 AM
Tue, Jul 5
6:00 AM
Tue, Jul 5
7:00 AM
Tue, Jul 5
8:00 AM
Tue, Jul 5
9:00 AM
Tue, Jul 5
10:00 AM
Tue, Jul 5
11:00 AM
Tue, Jul 5
12:00 PM
Tue, Jul 5
1:00 PM
Tue, Jul 5
2:00 PM
Tue, Jul 5
3:00 PM
Tue, Jul 5
4:00 PM
Tue, Jul 5
5:00 PM
Tue, Jul 5
6:00 PM
Tue, Jul 5
7:00 PM
Tue, Jul 5
8:00 PM
Tue, Jul 5
9:00 PM
Tue, Jul 5
10:00 PM
Tue, Jul 5
11:00 PM
Wed, Jul 6
12:00 AM
Wed, Jul 6
1:00 AM
Wed, Jul 6
2:00 AM
Wed, Jul 6
3:00 AM
Wed, Jul 6
4:00 AM
Wed, Jul 6
5:00 AM
Wed, Jul 6
6:00 AM
Wed, Jul 6
7:00 AM
Wed, Jul 6
8:00 AM
Wed, Jul 6
9:00 AM
Wed, Jul 6
10:00 AM
Wed, Jul 6
11:00 AM
Wed, Jul 6
12:00 PM
Wed, Jul 6
1:00 PM
Wed, Jul 6
2:00 PM
Condition
Clouds

Clouds

Clouds

Clouds

Clouds

Clouds

Clouds

Clouds

Clouds

Clouds

Clouds

Clouds

Clouds

Clouds

Clouds

Clear

Clear

Clear

Clear

Clear

Clear

Clouds

Clouds

Clouds

Clouds

Clouds

Clouds

Clouds

Clouds

Clouds

Clouds

Clouds

Clouds

Clouds

Clouds

Clouds

Clouds

Clouds

Clouds

Clear

Clear

Clear

Clear

Clear

Clear

Clear

Clear

Clouds
Temperature 81°F79°F79°F77°F73°F67°F66°F64°F62°F61°F59°F59°F58°F58°F57°F57°F59°F61°F62°F64°F66°F67°F68°F69°F71°F74°F74°F73°F71°F69°F67°F65°F63°F63°F63°F62°F61°F60°F59°F59°F60°F61°F63°F65°F67°F68°F69°F71°F
Feels Like 80°F79°F79°F76°F71°F66°F64°F62°F61°F59°F58°F58°F57°F57°F56°F56°F58°F59°F61°F63°F65°F66°F67°F68°F70°F73°F73°F72°F70°F68°F65°F63°F62°F61°F61°F60°F60°F59°F58°F57°F59°F60°F62°F64°F65°F67°F68°F70°F
Cloudiness 48%49%51%35%29%27%29%28%31%32%29%42%43%35%30%1%0%0%0%0%0%18%21%28%42%44%49%50%40%29%23%19%18%19%43%54%58%56%51%7%3%2%2%1%1%0%0%14%
Visibility 6 mi6 mi6 mi6 mi6 mi6 mi6 mi6 mi6 mi6 mi6 mi6 mi6 mi6 mi6 mi6 mi6 mi6 mi6 mi6 mi6 mi6 mi6 mi6 mi6 mi6 mi6 mi6 mi6 mi6 mi6 mi6 mi6 mi6 mi6 mi6 mi6 mi6 mi6 mi6 mi6 mi6 mi6 mi6 mi6 mi6 mi6 mi6 mi
Precipitation 0%0%0%0%0%0%0%0%0%0%0%0%0%0%0%0%0%0%0%0%0%0%0%0%0%0%0%0%0%0%0%0%0%0%0%0%0%0%0%0%0%0%0%0%0%0%0%0%
Humidity 35%34%31%32%35%41%45%49%54%61%68%69%69%69%70%70%66%62%58%55%51%50%48%46%41%36%36%37%40%42%46%50%53%55%56%57%59%61%63%65%63%61%57%53%50%48%46%41%
Dew Point 51°F49°F46°F45°F44°F41°F42°F43°F44°F45°F47°F47°F46°F46°F46°F46°F45°F45°F45°F45°F45°F44°F43°F42°F42°F42°F42°F43°F43°F44°F44°F44°F44°F44°F45°F44°F45°F45°F45°F45°F45°F45°F45°F44°F44°F43°F41°F40°F
Pressure 29.8"29.8"29.8"29.77"29.8"29.83"29.85"29.88"29.88"29.91"29.91"29.91"29.91"29.91"29.91"29.91"29.91"29.91"29.91"29.91"29.88"29.88"29.85"29.83"29.8"29.77"29.74"29.77"29.77"29.8"29.83"29.85"29.88"29.88"29.88"29.88"29.88"29.88"29.88"29.88"29.91"29.91"29.91"29.88"29.88"29.85"29.85"29.8"
Wind Speed 5.6 mph13.7 mph19.8 mph22.5 mph20.6 mph13.8 mph11.2 mph10.2 mph8.2 mph6.4 mph5.1 mph5 mph4.1 mph3.2 mph2.9 mph2.2 mph0.7 mph0.2 mph0.4 mph1.2 mph1.3 mph2.1 mph2.2 mph2.8 mph8.3 mph10.7 mph11.4 mph16.9 mph14.6 mph10.2 mph9 mph8.5 mph7.4 mph5.8 mph6.3 mph5.4 mph4.2 mph3.8 mph3.4 mph3.3 mph3.2 mph2.6 mph1.3 mph0.8 mph1.2 mph1 mph3 mph2 mph
Wind
Direction
253°
WSW
262°
W
265°
W
266°
W
266°
W
268°
W
270°
W
283°
WNW
287°
WNW
301°
WNW
309°
NW
310°
NW
302°
WNW
297°
WNW
284°
WNW
273°
W
247°
WSW
198°
SSW
201°
SSW
206°
SSW
203°
SSW
95°
E
74°
ENE
318°
NW
307°
NW
298°
WNW
279°
W
275°
W
277°
W
278°
W
301°
WNW
310°
NW
310°
NW
310°
NW
301°
WNW
295°
WNW
293°
WNW
288°
WNW
283°
WNW
276°
W
271°
W
281°
W
292°
WNW
285°
WNW
267°
W
336°
NNW
35°
NE
71°
ENE

Daily Forecast

Date High Low Precip. Humidity
Today
Jul 4

Clouds
81 °F
55 °F
0%
35%
Tuesday
Jul 5

Clouds
74 °F
57 °F
0%
48%
Wednesday
Jul 6

Clouds
79 °F
59 °F
0%
41%
Thursday
Jul 7

Clear
83 °F
60 °F
0%
35%
Friday
Jul 8

Clear
81 °F
60 °F
0%
22%
Saturday
Jul 9

Clear
75 °F
58 °F
0%
27%
Sunday
Jul 10

Clear
82 °F
63 °F
0%
24%
Monday
Jul 11

Clear
85 °F
66 °F
0%
22%
Tuesday
Jul 12

Clear
89 °F
67 °F
0%
20%
Wednesday
Jul 13

Clear
86 °F
66 °F
0%
21%
Thursday
Jul 14

Clouds
87 °F
68 °F
0%
19%
Friday
Jul 15

Clouds
88 °F
74 °F
8%
23%
Saturday
Jul 16

Clear
90 °F
71 °F
0%
23%
Sunday
Jul 17

Clear
88 °F
69 °F
0%
16%
Monday
Jul 18

Clear
84 °F
65 °F
0%
21%
Tuesday
Jul 19

Clear
87 °F
67 °F
0%
19%

Temperature 8-14 Day Outlook



Precipitation 8-14 Day Outlook




Quick Links
Pyramid Lake News
Pyramid Lake Photos
Pyramid Lake Videos




About Us
Contact Us
Site Map
Search Site
Advertise With Us
   
Pyramid.USLakes.info
THE PYRAMID LAKE WEBSITE

Copyright 2022, Lakes Online
Privacy    |    Legal